Tracking 19564 objects as of 19-Mar-2019
HD Live streaming from Space Station
objects crossing your sky now

FENGYUN 1C DEB

Track FENGYUN 1C DEB now!
10-day predictions


NORAD ID: 32124
Int'l Code: 1999-025CRS
Perigee: 460.4 km
Apogee: 560.8 km
Inclination: 99.0 °
Period: 94.7 minutes
Semi major axis: 6881 km
RCS: 0.0086 m2 (small)
Launch date: May 10, 1999
Source: People's Republic of China (PRC)
Launch site: Taiyaun Space Center, China (TSC)

Note: This is SATELLITE DEBRIS
aabbcc
Your satellite tracking list
Your tracking list is empty




NASA's NSSDC Master Catalog

Two Line Element Set (TLE):
1 32124U 99025CRS 19077.40928695  .00009289  00000-0  39623-3 0  9998
2 32124  99.0173 296.1821 0072982  80.1938 280.7524 15.20785502633767
Source of the keplerian elements: AFSPC